Weather History for KCVX - November, 2013

Change the Weather History Date:

Saturday, November 23, 2013

  Actual Average (WUND) Record (WUND)
Temperature  
Mean Temperature 25 °F -  
Max Temperature 31 °F - - (-1)
Min Temperature 18 °F - - (-1)
Degree Days  
Heating Degree Days 40    
Moisture  
Dew Point 11 °F    
Average Humidity 63    
Maximum Humidity 85    
Minimum Humidity 50    
Precipitation  
Precipitation 0.00 in - - ()
Sea Level Pressure  
Sea Level Pressure 30.40 in    
Wind  
Wind Speed 21 mph (NW)    
Max Wind Speed 28 mph    
Max Gust Speed 41 mph    
Visibility 6 miles    
Events Snow    
Averages and records for this station are not official NWS values.
T = Trace of Precipitation, MM = Missing Value Source: NWS Daily Summary

Daily Weather History Graph

Daily Weather History Graph

Search for Another Location

Airport or City:

Trip Planner

Search our weather history database for the weather conditions in past years. The results will help you decide how hot, cold, wet, or windy it might be!

Date:

Astronomy

Nov. 23, 2013 Rise Set
Actual Time 7:50 AM EST 5:04 PM EST
Civil Twilight 7:17 AM EST 5:36 PM EST
Nautical Twilight 6:41 AM EST 6:13 PM EST
Astronomical Twilight 6:06 AM EST 6:48 PM EST
Moon 10:38 PM EST (11/23) 12:01 PM EST (11/23)
Length of Visible Light 10h 19m
Length of Day
9h 13m
Waning Gibbous, 70% of the Moon is Illuminated
Nov 23
Waning Gibbous
Nov 25
Last Quarter
Dec 2
New
Dec 9
First Quarter
Dec 17
Full

Hourly Weather History & Observations

Time (EST) Temp. Windchill Dew Point Humidity Pressure Visibility Wind Dir Wind Speed Gust Speed Precip Events Conditions
12:14 AM 32.5 °F 20.8 °F 18.0 °F 55% 30.24 in 10.0 mi WNW 19.6 mph 28.8 mph N/A   Overcast
12:35 AM 32.0 °F 20.8 °F 19.9 °F 61% 30.25 in 10.0 mi NW 17.3 mph 27.6 mph N/A   Overcast
12:55 AM 31.5 °F 20.5 °F 19.6 °F 62% 30.24 in 7.0 mi NW 16.1 mph 26.5 mph N/A   Overcast
1:14 AM 30.9 °F 19.1 °F 21.0 °F 67% 30.25 in 10.0 mi NW 18.4 mph 27.6 mph N/A   Overcast
1:35 AM 29.7 °F 17.1 °F 21.0 °F 70% 30.25 in 5.0 mi WNW 19.6 mph 27.6 mph N/A Snow Light Snow
1:55 AM 29.7 °F 17.8 °F 22.3 °F 74% 30.25 in 5.0 mi NW 17.3 mph 29.9 mph N/A Snow Light Snow
2:14 AM 29.1 °F 15.1 °F 23.0 °F 78% 30.26 in 3.0 mi NW 24.2 mph 32.2 mph N/A Snow Light Snow
2:35 AM 27.1 °F 13.4 °F 23.0 °F 84% 30.26 in 1.0 mi NW 20.7 mph 31.1 mph N/A Snow Light Snow
2:55 AM 27.5 °F 14.2 °F 20.1 °F 74% 30.26 in 3.0 mi NW 19.6 mph 35.7 mph N/A Snow Light Snow
3:15 AM 27.3 °F 12.1 °F 17.8 °F 67% 30.27 in 5.0 mi NW 26.5 mph 39.1 mph N/A Snow Light Snow
3:35 AM 27.0 °F 12.2 °F 14.7 °F 60% 30.28 in 10.0 mi NW 24.2 mph 31.1 mph N/A   Overcast
3:55 AM 26.1 °F 11.3 °F 14.9 °F 63% 30.28 in 10.0 mi NW 23.0 mph 29.9 mph N/A Snow Light Snow
4:15 AM 26.1 °F 12.3 °F 14.0 °F 60% 30.28 in 10.0 mi NW 19.6 mph 27.6 mph N/A   Overcast
4:35 AM 25.7 °F 11.9 °F 12.6 °F 58% 30.28 in 10.0 mi NW 19.6 mph 29.9 mph N/A   Overcast
4:54 AM 25.5 °F 10.6 °F 13.3 °F 60% 30.29 in 10.0 mi NW 23.0 mph 34.5 mph N/A   Overcast
5:15 AM 25.2 °F 11.2 °F 13.3 °F 61% 30.30 in 10.0 mi NW 19.6 mph 29.9 mph N/A   Overcast
5:35 AM 25.0 °F 9.2 °F 14.0 °F 63% 30.30 in 10.0 mi NW 25.3 mph 31.1 mph N/A   Overcast
5:54 AM 23.9 °F 9.1 °F 16.2 °F 72% 30.30 in 3.0 mi NW 20.7 mph 31.1 mph N/A Snow Light Snow
6:15 AM 24.1 °F 7.7 °F 15.6 °F 70% 30.31 in 5.0 mi NNW 26.5 mph 36.8 mph N/A Snow Light Snow
6:35 AM 24.1 °F 9.4 °F 13.6 °F 64% 30.32 in 10.0 mi NW 20.7 mph 29.9 mph N/A   Overcast
6:54 AM 21.7 °F 5.2 °F 16.9 °F 82% 30.33 in 0.5 mi NNW 24.2 mph 39.1 mph N/A Snow Light Snow
7:15 AM 21.7 °F 4.9 °F 8.6 °F 57% 30.34 in 7.0 mi NW 25.3 mph 39.1 mph N/A   Mostly Cloudy
7:35 AM 21.2 °F 4.5 °F 8.4 °F 58% 30.35 in 10.0 mi NNW 24.2 mph 34.5 mph N/A   Mostly Cloudy
7:54 AM 21.2 °F 6.0 °F 10.0 °F 62% 30.36 in 5.0 mi NNW 19.6 mph 31.1 mph N/A Snow Light Snow
8:15 AM 20.7 °F 3.8 °F 8.2 °F 59% 30.37 in 5.0 mi NW 24.2 mph 31.1 mph N/A   Haze
8:34 AM 20.3 °F 2.6 °F 7.5 °F 58% 30.37 in 4.0 mi NW 26.5 mph 35.7 mph N/A   Haze
8:55 AM 20.1 °F 2.1 °F 7.7 °F 59% 30.38 in 4.0 mi NW 27.6 mph 36.8 mph N/A   Haze
9:15 AM 19.4 °F 3.2 °F 10.4 °F 68% 30.39 in 1.8 mi NNW 20.7 mph 32.2 mph N/A Snow Light Snow
9:35 AM 19.4 °F 2.1 °F 9.7 °F 66% 30.40 in 1.8 mi NNW 24.2 mph 35.7 mph N/A Snow Light Snow
9:55 AM 19.4 °F 3.6 °F 10.8 °F 69% 30.41 in 2.0 mi NW 19.6 mph 31.1 mph N/A Snow Light Snow
10:15 AM 19.2 °F 2.6 °F 6.8 °F 59% 30.41 in 0.8 mi NNW 21.9 mph 34.5 mph N/A Snow Light Snow
10:35 AM 19.8 °F 2.9 °F 7.0 °F 58% 30.42 in 3.0 mi NNW 23.0 mph 33.4 mph N/A   Haze
10:55 AM 20.3 °F 3.7 °F 5.2 °F 52% 30.42 in 10.0 mi NNW 23.0 mph 39.1 mph N/A   Mostly Cloudy
11:14 AM 20.5 °F 2.9 °F 5.7 °F 53% 30.43 in 10.0 mi NW 26.5 mph 38.0 mph N/A   Mostly Cloudy
11:35 AM 20.3 °F 3.7 °F 6.6 °F 56% 30.43 in 10.0 mi NNW 23.0 mph 34.5 mph N/A   Mostly Cloudy
11:55 AM 20.1 °F 2.1 °F 4.1 °F 50% 30.42 in 10.0 mi NW 27.6 mph 39.1 mph N/A   Mostly Cloudy
12:14 PM 20.5 °F 3.5 °F 6.3 °F 54% 30.42 in 10.0 mi NW 24.2 mph 35.7 mph N/A   Overcast
12:35 PM 20.7 °F 4.1 °F 5.2 °F 51% 30.42 in 10.0 mi NNW 23.0 mph 32.2 mph N/A   Overcast
12:55 PM 20.1 °F 3.1 °F 6.8 °F 56% 30.42 in 10.0 mi NW 24.2 mph 39.1 mph N/A   Overcast
1:14 PM 21.6 °F 5.0 °F 7.7 °F 55% 30.42 in 10.0 mi NNW 24.2 mph 33.4 mph N/A   Mostly Cloudy
1:35 PM 19.8 °F 4.1 °F 12.9 °F 75% 30.43 in 1.0 mi NNW 19.6 mph 34.5 mph N/A Snow Light Snow
1:55 PM 19.9 °F 3.2 °F 10.0 °F 65% 30.43 in 1.5 mi NW 23.0 mph 31.1 mph N/A Snow Light Snow
2:14 PM 21.0 °F 5.4 °F 10.4 °F 64% 30.44 in 2.5 mi NNW 20.7 mph 31.1 mph N/A Snow Light Snow
2:35 PM 18.5 °F 3.8 °F 14.4 °F 84% 30.44 in 0.2 mi NNW 16.1 mph 28.8 mph N/A Snow Snow
2:55 PM 18.9 °F 2.5 °F 14.9 °F 85% 30.45 in 0.2 mi NNW 20.7 mph 29.9 mph N/A Snow Snow
3:15 PM 19.6 °F 2.0 °F 13.5 °F 77% 30.45 in 0.5 mi NNW 25.3 mph 34.5 mph N/A Snow Light Snow
3:35 PM 19.8 °F 2.2 °F 12.0 °F 72% 30.46 in 1.0 mi NNW 25.3 mph 35.7 mph N/A Snow Light Snow
3:54 PM 19.4 °F 2.1 °F 8.6 °F 63% 30.47 in 0.5 mi NNW 24.2 mph 40.3 mph N/A Snow Light Snow
4:15 PM 19.4 °F 2.5 °F 9.0 °F 64% 30.47 in 1.8 mi NW 23.0 mph 32.2 mph N/A Snow Light Snow
4:35 PM 19.6 °F 2.3 °F 8.2 °F 61% 30.48 in 1.8 mi NNW 24.2 mph 35.7 mph N/A   Haze
4:55 PM 19.4 °F 1.8 °F 5.7 °F 55% 30.48 in 3.0 mi NNW 25.3 mph 35.7 mph N/A   Haze
5:15 PM 19.4 °F 3.2 °F 4.5 °F 52% 30.49 in 7.0 mi NNW 20.7 mph 41.4 mph N/A   Mostly Cloudy
5:35 PM 19.8 °F 2.6 °F 6.4 °F 56% 30.49 in 10.0 mi NW 24.2 mph 36.8 mph N/A   Scattered Clouds
5:55 PM 19.8 °F 2.2 °F 5.4 °F 54% 30.50 in 10.0 mi NNW 25.3 mph 34.5 mph N/A   Mostly Cloudy
6:15 PM 20.1 °F 3.4 °F 8.1 °F 60% 30.50 in 10.0 mi NNW 23.0 mph 32.2 mph N/A   Mostly Cloudy
6:34 PM 19.4 °F 3.2 °F 10.2 °F 68% 30.50 in 5.0 mi NW 20.7 mph 33.4 mph N/A Snow Light Snow
6:55 PM 19.4 °F 3.2 °F 8.4 °F 62% 30.51 in 7.0 mi NNW 20.7 mph 32.2 mph N/A   Overcast
7:15 PM 18.3 °F 2.2 °F 10.8 °F 72% 30.52 in 1.2 mi NW 19.6 mph 32.2 mph N/A Snow Light Snow
7:34 PM 18.9 °F 1.4 °F 10.2 °F 69% 30.52 in 3.0 mi NW 24.2 mph 34.5 mph N/A Snow Light Snow
7:55 PM 18.5 °F 2.4 °F 10.4 °F 71% 30.51 in 1.2 mi NNW 19.6 mph 32.2 mph N/A Snow Light Snow
8:14 PM 19.6 °F 2.7 °F 7.3 °F 59% 30.51 in 10.0 mi NNW 23.0 mph 35.7 mph N/A   Mostly Cloudy
8:35 PM 19.6 °F 2.0 °F 8.6 °F 62% 30.51 in 10.0 mi NNW 25.3 mph 39.1 mph N/A   Mostly Cloudy
8:55 PM 19.4 °F 2.8 °F 8.4 °F 62% 30.52 in 10.0 mi NNW 21.9 mph 34.5 mph N/A Snow Light Snow
9:14 PM 19.4 °F 2.8 °F 7.2 °F 59% 30.51 in 10.0 mi NNW 21.9 mph 34.5 mph N/A   Mostly Cloudy
9:35 PM 19.4 °F 4.1 °F 9.9 °F 66% 30.51 in 7.0 mi NNW 18.4 mph 34.5 mph N/A Snow Light Snow
9:55 PM 19.2 °F 3.0 °F 7.0 °F 59% 30.51 in 10.0 mi NW 20.7 mph 28.8 mph N/A   Scattered Clouds
10:14 PM 19.4 °F 3.6 °F 8.8 °F 63% 30.51 in 7.0 mi NW 19.6 mph 28.8 mph N/A Snow Light Snow
10:35 PM 19.4 °F 3.6 °F 8.1 °F 61% 30.51 in 10.0 mi NW 19.6 mph 28.8 mph N/A   Mostly Cloudy
10:54 PM 19.6 °F 4.3 °F 7.3 °F 59% 30.51 in 10.0 mi NNW 18.4 mph 25.3 mph N/A   Mostly Cloudy
11:15 PM 19.4 °F 5.5 °F 8.1 °F 61% 30.50 in 10.0 mi NNW 15.0 mph 23.0 mph N/A   Mostly Cloudy
11:34 PM 19.2 °F 2.6 °F 6.6 °F 58% 30.50 in 10.0 mi NNW 21.9 mph 28.8 mph N/A   Mostly Cloudy
11:55 PM 19.0 °F 4.5 °F 8.2 °F 63% 30.51 in 10.0 mi NW 16.1 mph 26.5 mph N/A   Mostly Cloudy